SDM6304 ULAA-ULLI

Flight info

Callsign SDM6304
Flight time 1h 20m
Altitude 36000
Route MAKOG T821 ROGID M856 GIKUR T458 BEPOL
Aircraft SU95/M-VGDW/C

Departure

Time 2026-05-06 22:30
Airport Talagi Airport (ULAA)

Arrival

Time 2026-05-06 23:50
Airport Pulkovo Airport (ULLI)
Time Latitude Longitude Altitude Speed Heading
2026-05-06 22:23 64.59712 40.71562 37 ft 0 kts 276°
2026-05-06 22:24 64.59714 40.71539 37 ft 3 kts 277°
2026-05-06 22:24 64.59718 40.71477 37 ft 5 kts 279°
2026-05-06 22:24 64.59723 40.71399 37 ft 5 kts 277°
2026-05-06 22:24 64.59729 40.71302 37 ft 7 kts 291°
2026-05-06 22:25 64.59767 40.71273 37 ft 7 kts
2026-05-06 22:25 64.59826 40.71293 37 ft 10 kts 12°
2026-05-06 22:25 64.59898 40.71314 37 ft 11 kts
2026-05-06 22:25 64.59973 40.71333 37 ft 11 kts
2026-05-06 22:26 64.60034 40.71375 35 ft 7 kts 55°
2026-05-06 22:26 64.60036 40.71522 34 ft 11 kts 96°
2026-05-06 22:26 64.60026 40.71722 32 ft 14 kts 96°
2026-05-06 22:26 64.60015 40.71954 32 ft 15 kts 96°
2026-05-06 22:27 64.60002 40.72253 31 ft 22 kts 97°
2026-05-06 22:27 64.59985 40.72613 35 ft 22 kts 95°
2026-05-06 22:27 64.59967 40.72957 37 ft 21 kts 96°
2026-05-06 22:27 64.59946 40.73301 34 ft 23 kts 99°
2026-05-06 22:28 64.59929 40.73688 32 ft 18 kts 96°
2026-05-06 22:28 64.59916 40.73973 31 ft 4 kts 95°
2026-05-06 22:28 64.59914 40.74027 32 ft 10 kts 95°
2026-05-06 22:28 64.59911 40.74188 34 ft 6 kts 117°
2026-05-06 22:29 64.59900 40.74193 34 ft 1 kts 244°
2026-05-06 22:29 64.59905 40.74142 33 ft 8 kts 284°
2026-05-06 22:29 64.59920 40.73878 31 ft 36 kts 276°
2026-05-06 22:29 64.59973 40.72797 36 ft 96 kts 276°
2026-05-06 22:30 64.60070 40.70839 36 ft 145 kts 277°
2026-05-06 22:30 64.60188 40.68522 478 ft 140 kts 279°
2026-05-06 22:30 64.60324 40.66208 920 ft 148 kts 279°
2026-05-06 22:30 64.60461 40.63851 1584 ft 144 kts 278°
2026-05-06 22:31 64.60579 40.61499 2004 ft 153 kts 278°
2026-05-06 22:31 64.60703 40.58895 2351 ft 170 kts 278°
2026-05-06 22:31 64.60838 40.56094 2913 ft 180 kts 278°
2026-05-06 22:31 64.60978 40.53178 3698 ft 182 kts 278°
2026-05-06 22:32 64.61116 40.50237 4476 ft 184 kts 278°
2026-05-06 22:32 64.61249 40.47254 5234 ft 187 kts 275°
2026-05-06 22:32 64.61022 40.44132 5681 ft 209 kts 250°
2026-05-06 22:32 64.60147 40.41189 6130 ft 232 kts 232°
2026-05-06 22:33 64.59058 40.38326 6907 ft 238 kts 232°
2026-05-06 22:33 64.57924 40.35395 7555 ft 253 kts 231°
2026-05-06 22:33 64.56722 40.32301 8326 ft 260 kts 231°
2026-05-06 22:33 64.55507 40.29186 9316 ft 261 kts 231°
2026-05-06 22:34 64.54283 40.26049 10235 ft 263 kts 231°
2026-05-06 22:34 64.53049 40.22888 11119 ft 265 kts 232°
2026-05-06 22:34 64.51809 40.19711 12014 ft 266 kts 232°
2026-05-06 22:34 64.50568 40.16534 12916 ft 267 kts 232°
2026-05-06 22:35 64.49310 40.13318 13789 ft 269 kts 232°
2026-05-06 22:35 64.48051 40.10104 14611 ft 268 kts 232°
2026-05-06 22:35 64.46815 40.06954 15450 ft 268 kts 232°
2026-05-06 22:35 64.45564 40.03770 16303 ft 266 kts 232°
2026-05-06 22:36 64.44324 40.00617 17181 ft 264 kts 232°
2026-05-06 22:36 64.43084 39.97469 17992 ft 265 kts 232°
2026-05-06 22:36 64.41840 39.94310 18703 ft 266 kts 232°
2026-05-06 22:36 64.40591 39.91146 19369 ft 267 kts 232°
2026-05-06 22:37 64.39335 39.87970 20016 ft 269 kts 232°
2026-05-06 22:37 64.38070 39.84773 20640 ft 271 kts 232°
2026-05-06 22:37 64.36795 39.81558 21275 ft 272 kts 232°
2026-05-06 22:37 64.35510 39.78324 21923 ft 274 kts 233°
2026-05-06 22:38 64.34218 39.75078 22544 ft 276 kts 233°
2026-05-06 22:38 64.32917 39.71810 23147 ft 278 kts 233°
2026-05-06 22:38 64.31604 39.68518 23712 ft 280 kts 233°
2026-05-06 22:38 64.30283 39.65211 24223 ft 281 kts 233°
2026-05-06 22:39 64.28955 39.61892 24708 ft 283 kts 233°
2026-05-06 22:39 64.27617 39.58553 25173 ft 285 kts 233°
2026-05-06 22:39 64.26266 39.55186 25636 ft 287 kts 233°
2026-05-06 22:39 64.24908 39.51807 26096 ft 288 kts 233°
2026-05-06 22:40 64.23560 39.48456 26540 ft 290 kts 233°
2026-05-06 22:40 64.22181 39.45037 26976 ft 293 kts 233°
2026-05-06 22:40 64.20793 39.41598 27394 ft 295 kts 233°
2026-05-06 22:40 64.19394 39.38137 27820 ft 296 kts 233°
2026-05-06 22:41 64.16567 39.31161 28630 ft 301 kts 233°
2026-05-06 22:41 64.15138 39.27642 29018 ft 303 kts 233°
2026-05-06 22:41 64.13698 39.24103 29414 ft 304 kts 233°
2026-05-06 22:42 64.12249 39.20547 29786 ft 307 kts 233°
2026-05-06 22:42 64.10786 39.16965 30131 ft 309 kts 233°
2026-05-06 22:42 64.09313 39.13361 30402 ft 312 kts 233°
2026-05-06 22:42 64.07822 39.09716 30663 ft 315 kts 233°
2026-05-06 22:43 64.06315 39.06037 30923 ft 319 kts 233°
2026-05-06 22:43 64.04828 39.02357 31190 ft 321 kts 233°
2026-05-06 22:43 64.03317 38.98567 31451 ft 324 kts 233°
2026-05-06 22:43 64.01803 38.94738 31717 ft 327 kts 233°
2026-05-06 22:44 64.00282 38.90858 31970 ft 329 kts 233°
2026-05-06 22:44 63.98755 38.86943 32242 ft 331 kts 233°
2026-05-06 22:44 63.97223 38.82996 32541 ft 332 kts 233°
2026-05-06 22:44 63.95697 38.79039 32860 ft 333 kts 233°
2026-05-06 22:45 63.94172 38.75057 33150 ft 334 kts 233°
2026-05-06 22:45 63.92650 38.71061 33422 ft 335 kts 233°
2026-05-06 22:45 63.91127 38.67049 33696 ft 336 kts 233°
2026-05-06 22:45 63.89603 38.63015 33964 ft 337 kts 233°
2026-05-06 22:46 63.88079 38.58959 33989 ft 337 kts 233°
2026-05-06 22:46 63.85049 38.50918 33987 ft 335 kts 233°
2026-05-06 22:47 63.82040 38.42948 33991 ft 335 kts 233°
2026-05-06 22:47 63.79009 38.34944 33989 ft 336 kts 233°
2026-05-06 22:48 63.76183 38.27475 33992 ft 350 kts 233°
2026-05-06 22:48 63.73212 38.18530 33991 ft 363 kts 237°
2026-05-06 22:49 63.70192 38.09091 33993 ft 379 kts 236°
2026-05-06 22:49 63.67055 37.99363 33992 ft 385 kts 236°
2026-05-06 22:50 63.63926 37.89722 33994 ft 384 kts 236°
2026-05-06 22:50 63.60770 37.80038 33993 ft 384 kts 236°
2026-05-06 22:51 63.57612 37.70386 33999 ft 383 kts 236°
2026-05-06 22:51 63.54445 37.60750 34003 ft 384 kts 236°
2026-05-06 22:52 63.51271 37.51133 33997 ft 384 kts 236°
2026-05-06 22:52 63.48110 37.41597 33999 ft 384 kts 236°
2026-05-06 22:53 63.44920 37.32014 33996 ft 384 kts 236°
2026-05-06 22:53 63.41725 37.22456 34005 ft 384 kts 235°
2026-05-06 22:54 63.38352 37.13182 34004 ft 385 kts 233°
2026-05-06 22:54 63.34956 37.03953 34007 ft 385 kts 233°
2026-05-06 22:55 63.31553 36.94744 34007 ft 385 kts 233°
2026-05-06 22:55 63.28165 36.85623 34006 ft 385 kts 233°
2026-05-06 22:56 63.24747 36.76459 34008 ft 385 kts 233°
2026-05-06 22:56 63.21288 36.67381 34008 ft 386 kts 230°
2026-05-06 22:57 63.17367 36.59194 34002 ft 388 kts 226°
2026-05-06 22:57 63.13354 36.51223 33999 ft 388 kts 226°
2026-05-06 22:58 63.09365 36.43301 33999 ft 388 kts 226°
2026-05-06 22:58 63.05352 36.35354 33998 ft 388 kts 226°
2026-05-06 22:59 63.01334 36.27428 33999 ft 388 kts 225°
2026-05-06 22:59 62.97307 36.19513 33997 ft 388 kts 225°
2026-05-06 23:00 62.93283 36.11635 33994 ft 388 kts 225°
2026-05-06 23:00 62.89250 36.03771 33998 ft 388 kts 225°
2026-05-06 23:01 62.85255 35.95975 33997 ft 387 kts 226°
2026-05-06 23:01 62.81251 35.88093 33999 ft 387 kts 226°
2026-05-06 23:02 62.77243 35.80236 34002 ft 387 kts 226°
2026-05-06 23:02 62.73229 35.72408 34000 ft 387 kts 226°
2026-05-06 23:03 62.69210 35.64600 34000 ft 387 kts 226°
2026-05-06 23:03 62.65184 35.56810 34001 ft 387 kts 226°
2026-05-06 23:04 62.61187 35.49106 34008 ft 387 kts 226°
2026-05-06 23:04 62.57161 35.41376 34004 ft 386 kts 226°
2026-05-06 23:05 62.53133 35.33668 34001 ft 386 kts 226°
2026-05-06 23:05 62.49109 35.25998 33994 ft 386 kts 225°
2026-05-06 23:06 62.45082 35.18355 33999 ft 385 kts 225°
2026-05-06 23:06 62.41053 35.10736 33995 ft 385 kts 225°
2026-05-06 23:07 62.37038 35.03223 33996 ft 385 kts 225°
2026-05-06 23:07 62.32971 34.95737 34001 ft 384 kts 225°
2026-05-06 23:08 62.28904 34.88269 34000 ft 384 kts 225°
2026-05-06 23:08 62.24837 34.80819 34001 ft 384 kts 225°
2026-05-06 23:09 62.20774 34.73400 34000 ft 384 kts 225°
2026-05-06 23:09 62.16706 34.66000 33998 ft 383 kts 225°
2026-05-06 23:10 62.12665 34.58676 34003 ft 383 kts 225°
2026-05-06 23:10 62.08598 34.51330 34009 ft 383 kts 225°
2026-05-06 23:11 62.04523 34.43996 34012 ft 383 kts 225°
2026-05-06 23:11 62.00449 34.36691 34015 ft 383 kts 225°
2026-05-06 23:12 61.96369 34.29403 34019 ft 383 kts 225°
2026-05-06 23:12 61.92282 34.22129 34021 ft 383 kts 225°
2026-05-06 23:13 61.88368 34.14618 34017 ft 380 kts 231°
2026-05-06 23:13 61.85088 34.05923 34018 ft 377 kts 236°
2026-05-06 23:14 61.81934 33.97035 34019 ft 377 kts 236°
2026-05-06 23:14 61.78764 33.88194 34021 ft 378 kts 236°
2026-05-06 23:15 61.75578 33.79361 34028 ft 378 kts 235°
2026-05-06 23:15 61.72390 33.70560 34028 ft 378 kts 235°
2026-05-06 23:16 61.69197 33.61777 34034 ft 377 kts 235°
2026-05-06 23:16 61.66017 33.53067 34042 ft 377 kts 235°
2026-05-06 23:17 61.62813 33.44322 34039 ft 377 kts 235°
2026-05-06 23:17 61.59605 33.35600 34043 ft 377 kts 235°
2026-05-06 23:18 61.56394 33.26903 34045 ft 377 kts 235°
2026-05-06 23:18 61.53177 33.18221 34044 ft 377 kts 235°
2026-05-06 23:19 61.49960 33.09568 34048 ft 377 kts 235°
2026-05-06 23:19 61.46616 33.01208 34053 ft 379 kts 230°
2026-05-06 23:20 61.42811 32.93547 34046 ft 380 kts 228°
2026-05-06 23:20 61.39001 32.85930 34049 ft 380 kts 228°
2026-05-06 23:21 61.35184 32.78308 34049 ft 380 kts 228°
2026-05-06 23:21 61.31367 32.70712 34051 ft 380 kts 228°
2026-05-06 23:22 61.27090 32.64170 34048 ft 390 kts 212°
2026-05-06 23:22 61.21774 32.61030 34045 ft 409 kts 193°
2026-05-06 23:23 61.16099 32.60285 34039 ft 411 kts 192°
2026-05-06 23:23 61.10387 32.59526 34048 ft 411 kts 192°
2026-05-06 23:24 61.04672 32.58753 34049 ft 411 kts 192°
2026-05-06 23:24 61.01814 32.58365 33936 ft 412 kts 192°
2026-05-06 23:24 60.98955 32.57979 33531 ft 411 kts 192°
2026-05-06 23:24 60.96106 32.57592 33061 ft 409 kts 192°
2026-05-06 23:25 60.93269 32.57185 32601 ft 409 kts 193°
2026-05-06 23:25 60.90469 32.56774 32153 ft 409 kts 193°
2026-05-06 23:25 60.87639 32.56363 31688 ft 407 kts 193°
2026-05-06 23:25 60.84831 32.55961 31223 ft 402 kts 193°
2026-05-06 23:26 60.82059 32.55567 30766 ft 397 kts 193°
2026-05-06 23:26 60.79316 32.55176 30319 ft 394 kts 193°
2026-05-06 23:26 60.76592 32.54787 29830 ft 391 kts 193°
2026-05-06 23:26 60.73898 32.54402 29307 ft 388 kts 193°
2026-05-06 23:27 60.71232 32.53827 28789 ft 380 kts 198°
2026-05-06 23:27 60.68656 32.52857 28295 ft 375 kts 199°
2026-05-06 23:27 60.66100 32.51862 27803 ft 372 kts 199°
2026-05-06 23:27 60.63566 32.50881 27315 ft 370 kts 199°
2026-05-06 23:28 60.61047 32.49913 26847 ft 367 kts 199°
2026-05-06 23:28 60.58543 32.48956 26381 ft 365 kts 199°
2026-05-06 23:28 60.56087 32.48020 25924 ft 363 kts 199°
2026-05-06 23:28 60.53615 32.47082 25463 ft 360 kts 199°
2026-05-06 23:29 60.51156 32.46150 25025 ft 358 kts 199°
2026-05-06 23:29 60.48715 32.45227 24589 ft 356 kts 199°
2026-05-06 23:29 60.46288 32.44310 24154 ft 354 kts 199°
2026-05-06 23:29 60.44689 32.43706 23875 ft 352 kts 199°
2026-05-06 23:30 60.41474 32.42494 23243 ft 350 kts 199°
2026-05-06 23:30 60.39091 32.41597 22747 ft 347 kts 198°
2026-05-06 23:30 60.36724 32.40709 22243 ft 345 kts 198°
2026-05-06 23:30 60.35165 32.40125 21910 ft 343 kts 198°
2026-05-06 23:31 60.32040 32.38954 21242 ft 340 kts 198°
2026-05-06 23:31 60.29722 32.38087 20749 ft 338 kts 198°
2026-05-06 23:31 60.27418 32.37225 20272 ft 336 kts 198°
2026-05-06 23:31 60.25903 32.36660 19953 ft 334 kts 198°
2026-05-06 23:32 60.22878 32.35532 19332 ft 332 kts 198°
2026-05-06 23:32 60.20611 32.34688 18872 ft 331 kts 198°
2026-05-06 23:32 60.18355 32.33848 18421 ft 329 kts 198°
2026-05-06 23:32 60.16109 32.33014 17907 ft 328 kts 198°
2026-05-06 23:33 60.13868 32.32181 17393 ft 326 kts 198°
2026-05-06 23:33 60.12392 32.31634 17062 ft 326 kts 197°
2026-05-06 23:33 60.10168 32.30811 16548 ft 324 kts 197°
2026-05-06 23:33 60.08065 32.29486 16164 ft 311 kts 213°
2026-05-06 23:34 60.06351 32.26954 16061 ft 306 kts 229°
2026-05-06 23:34 60.05141 32.23478 16042 ft 305 kts 245°
2026-05-06 23:34 60.04408 32.19539 15800 ft 299 kts 250°
2026-05-06 23:34 60.03748 32.15639 15405 ft 294 kts 251°
2026-05-06 23:35 60.03099 32.11789 15015 ft 289 kts 251°
2026-05-06 23:35 60.02460 32.08014 14661 ft 284 kts 250°
2026-05-06 23:35 60.01827 32.04303 14323 ft 282 kts 250°
2026-05-06 23:35 60.01188 32.00582 13984 ft 284 kts 250°
2026-05-06 23:36 60.00545 31.96843 13618 ft 284 kts 250°
2026-05-06 23:36 59.99905 31.93136 13236 ft 281 kts 250°
2026-05-06 23:36 59.99275 31.89492 12863 ft 282 kts 250°
2026-05-06 23:36 59.98636 31.85799 12423 ft 280 kts 250°
2026-05-06 23:37 59.97999 31.82127 11956 ft 280 kts 250°
2026-05-06 23:37 59.97362 31.78459 11489 ft 279 kts 250°
2026-05-06 23:37 59.96724 31.74799 11038 ft 279 kts 250°
2026-05-06 23:37 59.96087 31.71149 10587 ft 278 kts 251°
2026-05-06 23:38 59.95450 31.67505 10142 ft 278 kts 251°
2026-05-06 23:38 59.94811 31.63862 9673 ft 278 kts 251°
2026-05-06 23:38 59.94172 31.60226 9195 ft 278 kts 251°
2026-05-06 23:38 59.93535 31.56600 8765 ft 276 kts 251°
2026-05-06 23:39 59.92899 31.52993 8338 ft 275 kts 251°
2026-05-06 23:39 59.92269 31.49423 7960 ft 272 kts 250°
2026-05-06 23:39 59.91645 31.45903 7686 ft 265 kts 250°
2026-05-06 23:39 59.91045 31.42519 7480 ft 263 kts 250°
2026-05-06 23:40 59.90429 31.39057 7277 ft 265 kts 250°
2026-05-06 23:40 59.89813 31.35600 7066 ft 264 kts 250°
2026-05-06 23:40 59.89198 31.32154 6852 ft 264 kts 250°
2026-05-06 23:40 59.88583 31.28709 6595 ft 265 kts 250°
2026-05-06 23:41 59.87967 31.25265 6283 ft 263 kts 250°
2026-05-06 23:41 59.87373 31.21871 6059 ft 257 kts 251°
2026-05-06 23:41 59.86835 31.18462 5908 ft 257 kts 252°
2026-05-06 23:41 59.86321 31.15090 5612 ft 252 kts 253°
2026-05-06 23:42 59.85814 31.11780 5323 ft 248 kts 253°
2026-05-06 23:42 59.85311 31.08529 5048 ft 244 kts 252°
2026-05-06 23:42 59.84810 31.05331 4753 ft 240 kts 252°
2026-05-06 23:42 59.84313 31.02185 4453 ft 237 kts 252°
2026-05-06 23:43 59.83823 30.99095 4195 ft 232 kts 252°
2026-05-06 23:43 59.83350 30.96111 3959 ft 227 kts 252°
2026-05-06 23:43 59.82877 30.93139 3723 ft 226 kts 252°
2026-05-06 23:43 59.82400 30.90152 3484 ft 227 kts 252°
2026-05-06 23:44 59.81921 30.87152 3253 ft 228 kts 252°
2026-05-06 23:44 59.81444 30.84166 3016 ft 226 kts 252°
2026-05-06 23:44 59.80965 30.81179 2782 ft 226 kts 252°
2026-05-06 23:44 59.80490 30.78214 2566 ft 225 kts 252°
2026-05-06 23:45 59.79935 30.75316 2542 ft 225 kts 243°
2026-05-06 23:45 59.79242 30.72552 2539 ft 223 kts 243°
2026-05-06 23:45 59.78556 30.69779 2542 ft 224 kts 243°
2026-05-06 23:45 59.77883 30.67048 2536 ft 213 kts 243°
2026-05-06 23:46 59.77259 30.64515 2535 ft 196 kts 243°
2026-05-06 23:46 59.76661 30.62090 2543 ft 200 kts 243°
2026-05-06 23:46 59.76105 30.59582 2539 ft 198 kts 257°
2026-05-06 23:46 59.76094 30.56943 2559 ft 190 kts 284°
2026-05-06 23:47 59.76480 30.54436 2547 ft 189 kts 287°
2026-05-06 23:47 59.76865 30.51941 2505 ft 187 kts 287°
2026-05-06 23:47 59.77233 30.49553 2199 ft 175 kts 287°
2026-05-06 23:47 59.77566 30.47344 1964 ft 159 kts 287°
2026-05-06 23:48 59.77866 30.45337 1751 ft 145 kts 287°
2026-05-06 23:48 59.78153 30.43422 1550 ft 145 kts 288°
2026-05-06 23:48 59.78437 30.41518 1340 ft 143 kts 288°
2026-05-06 23:48 59.78721 30.39622 1105 ft 143 kts 287°
2026-05-06 23:49 59.79002 30.37742 877 ft 141 kts 287°
2026-05-06 23:49 59.79275 30.35913 685 ft 139 kts 287°
2026-05-06 23:49 59.79550 30.34093 509 ft 138 kts 288°
2026-05-06 23:49 59.79816 30.32272 310 ft 136 kts 287°
2026-05-06 23:50 59.80086 30.30467 127 ft 136 kts 287°
2026-05-06 23:50 59.80462 30.27952 76 ft 22 kts 286°
2026-05-06 23:50 59.80472 30.27881 79 ft 2 kts 263°
2026-05-06 23:51 59.80455 30.27842 76 ft 5 kts 227°
2026-05-06 23:51 59.80431 30.27767 79 ft 7 kts 252°
2026-05-06 23:51 59.80416 30.27679 71 ft 6 kts 251°
2026-05-06 23:51 59.80402 30.27596 76 ft 6 kts 251°
2026-05-06 23:52 59.80387 30.27510 77 ft 7 kts 251°
2026-05-06 23:52 59.80370 30.27413 78 ft 8 kts 251°
2026-05-06 23:52 59.80351 30.27300 80 ft 9 kts 251°
2026-05-06 23:52 59.80348 30.27172 77 ft 10 kts 286°
2026-05-06 23:53 59.80369 30.27037 77 ft 11 kts 286°
2026-05-06 23:53 59.80386 30.26924 78 ft 4 kts 285°
2026-05-06 23:53 59.80377 30.26871 81 ft 5 kts 212°
2026-05-06 23:53 59.80342 30.26847 81 ft 6 kts 198°
2026-05-06 23:54 59.80320 30.26832 81 ft 1 kts 198°
2026-05-06 23:54 59.80314 30.26830 81 ft 1 kts 176°
2026-05-06 23:54 59.80304 30.26842 76 ft 3 kts 134°
2026-05-06 23:54 59.80293 30.26890 81 ft 5 kts 105°
2026-05-06 23:55 59.80287 30.26933 76 ft 1 kts 107°
2026-05-06 23:55 59.80286 30.26938 77 ft 0 kts 107°